Location: Cahas Mountain Overlook
(37.0833°N, 80.1000°W)
Time: 01:29:13
(UTC-05:00)

A-11 Canister half - Pass Details

Date: 06 December 2023
Orbit: 1512 x 1687 km, 47.2° (Epoch: 01 March)

Event Time Altitude Azimuth Distance (km) Brightness Sun altitude
Exits shadow 04:43:07 43° 327° (NNW) 2,204 9.5 -30.5°
Maximum altitude 04:46:20 57° 19° (NNE) 1,908 9.4 -29.8°
Drops below altitude 10° 04:56:18 10° 96° (E) 3,946 12.1 -27.9°
Sets 04:59:36 0° 101° (E) 4,936 13.0 -27.2°
